Voltar ao catálogo

STARLINK-34012

AtivoComunicaçõesVLEO
NORAD 63926·PAYLOAD·🇺🇸 United States

Lançado May 13, 2025 de Vandenberg Space Force Base

Loading…

Próximas Passagens (próximas 24 horas)

TLE

AtualizadoSource: CelesTrak SupGP

Época: Sep 14, 2026, 22:41 UTC

1 63926C 25098A   26257.94562500 -.00044011  00000+0 -15309-2 0  2571
2 63926  70.0002 155.5133 0003157 269.2758 157.7083 15.29603966    14

Acompanhe STARLINK-34012 em tempo real com AllMySat

Download on the App Store